カタログに戻る

USA 40 R/B DEB

運用中HEO
NORAD 23385·DEBRIS·🇺🇸 United States

打ち上げ Aug 8, 1989 から Cape Canaveral Space Force Station

Loading…

次のパス (今後24時間)

TLE

最新Source: Space-Track

元期: Sep 14, 2026, 21:47 UTC

1 23385U 89061BH  26257.90814603  .00003484  00000-0  32224-2 0  9992
2 23385  57.0071 337.1255 3052736 192.9586 157.1105  8.74422787237534

AllMySatでUSA 40 R/B DEBをリアルタイム追跡

Download on the App Store